Location: ??
(35.1714°N, 128.2806°E)
Time: 14:49:46
(UTC+00:00)

Cosmos 1606 Rocket - Pass Details

Date: 29 October 2020
Orbit: 603 x 631 km, 82.5° (Epoch: 30 November)

Event Time Altitude Azimuth Distance (km) Brightness Sun altitude
Rises 19:42:25 0° 358° (N) 2,929 7.0 -25.8°
Reaches altitude 10° 19:44:42 10° 3° (N) 2,018 6.2 -25.3°
Maximum altitude 19:49:06 56° 81° (E) 753 4.2 -24.4°
Drops below altitude 10° 19:53:28 10° 160° (SSE) 2,001 6.4 -23.5°
Sets 19:55:43 0° 165° (SSE) 2,901 7.2 -23.1°
